This is the latest recevied weather packets stored in our database for station/object KC9DNQ-3. If no packets are shown the sender has not sent any weather packets the latest 10 day(s).
| Time | Temp. | Humidity | Pressure | Rain* | Wind** | Luminosity | Snow |
|---|---|---|---|---|---|---|---|
| 1777748111 | 12.78° C | 39% | 1018 hPa | 0 mm | - | 323 W/m² | - |
| 1777747811 | 12.78° C | 37% | 1018 hPa | 0 mm | - | 258 W/m² | - |
| 1777747511 | 12.78° C | 38% | 1018 hPa | 0 mm | - | 308 W/m² | - |
| 1777747211 | 12.78° C | 40% | 1018.2 hPa | 0 mm | - | 490 W/m² | - |
| 1777746912 | 12.22° C | 42% | 1018.2 hPa | 0 mm | - | 1014 W/m² | - |
| 1777746611 | 12.22° C | 43% | 1018.3 hPa | 0 mm | - | 415 W/m² | - |
| 1777746311 | 11.67° C | 41% | 1018.3 hPa | 0 mm | - | 297 W/m² | - |
| 1777745711 | 12.22° C | 43% | 1018.4 hPa | 0 mm | - | 176 W/m² | - |
| 1777745411 | 12.22° C | 41% | 1018.4 hPa | 0 mm | - | 163 W/m² | - |
| 1777745112 | 12.78° C | 40% | 1018.4 hPa | 0 mm | - | 246 W/m² | - |
| 1777744811 | 12.78° C | 40% | 1018.4 hPa | 0 mm | - | 1099 W/m² | - |
| 1777744512 | 12.22° C | 41% | 1018.5 hPa | 0 mm | - | 1046 W/m² | - |
| 1777744211 | 11.67° C | 41% | 1018.6 hPa | 0 mm | - | 288 W/m² | - |
| 1777743910 | 11.67° C | 42% | 1018.6 hPa | 0 mm | - | 218 W/m² | - |
| 1777743611 | 12.22° C | 40% | 1018.6 hPa | 0 mm | - | 223 W/m² | - |
| 1777743311 | 12.78° C | 39% | 1018.7 hPa | 0 mm | - | 265 W/m² | - |
| 1777743011 | 12.22° C | 45% | 1018.9 hPa | 0 mm | - | 972 W/m² | - |
| 1777742710 | 11.67° C | 44% | 1018.9 hPa | 0 mm | - | 1041 W/m² | - |
| 1777742411 | 11.67° C | 40% | 1018.9 hPa | 0 mm | - | 246 W/m² | - |
| 1777742111 | 12.22° C | 41% | 1018.9 hPa | 0 mm | - | 329 W/m² | - |
| 1777741811 | 11.67° C | 44% | 1018.9 hPa | 0 mm | - | 290 W/m² | - |
| 1777741511 | 11.67° C | 43% | 1018.9 hPa | 0 mm | - | 276 W/m² | - |
| 1777741211 | 11.67° C | 42% | 1018.9 hPa | 0 mm | - | 1023 W/m² | - |
| 1777740912 | 11.67° C | 42% | 1018.9 hPa | 0 mm | - | 279 W/m² | - |
| 1777740612 | 12.22° C | 45% | 1019 hPa | 0 mm | - | 260 W/m² | - |
* Rain latest hour (hover to see other rain measurements)
** Current wind speed in m/s (hover to see current wind gust speed)